Lapse_Rate
4.5 4.3 2.5 2.5 4.1 5.0 2.2 0.6 6.3 3.5 3.1 4.8 5.6 6.5 6.5 6.6 6.4 6.5 6.4 6.4 6.5 6.5 6.5 6.5 6.5 6.5 6.5 6.6 6.5 6.5 6.5 6.5 6.5 6.5 6.5 6.5 6.5 6.5 6.5 6.5 6.5 6.5 6.5 6.5
3.7 3.8 2.6 3.3 4.2 5.4 1.6 3.4 5.4 4.0 3.7 6.5 6.5 6.2 6.5 6.3 6.5 6.5 6.5 6.5 6.5 6.5 6.5 6.5 6.5 6.5 6.6 6.7 6.5 6.5 6.5 6.5 6.5 6.5 6.5 6.5 6.5 6.5 6.5 6.5 6.5 6.5 6.5 6.5
4.2 3.4 2.9 3.1 4.7 3.0 -0.4 2.0 6.5 4.9 4.2 6.3 6.4 6.5 6.5 6.5 6.1 6.4 6.5 6.4 6.1 6.5 6.5 6.5 6.5 6.5 6.5 6.5 6.6 6.6 6.1 6.5 6.5 6.5 6.5 6.5 6.5 6.5 6.5 6.5 6.5 6.5 6.5 6.5
3.9 3.2 2.7 3.6 3.4 3.5 1.2 -0.4 6.1 5.2 6.5 6.5 6.4 6.3 6.5 6.5 6.5 6.3 5.9 6.5 6.5 6.5 6.5 6.5 6.5 6.5 6.5 6.4 6.7 6.2 6.4 6.5 6.5 6.5 6.5 6.5 6.5 6.5 6.5 6.5 6.5 6.5 6.5 6.5
4.3 4.3 4.4 5.5 4.5 4.1 -0.0 2.3 4.6 5.3 5.3 5.4 6.4 6.5 6.5 6.5 6.5 6.5 6.5 6.5 6.5 6.5 6.5 6.5 6.5 6.5 6.5 6.5 6.2 6.5 6.3 6.5 6.5 6.5 6.5 6.5 6.5 6.5 6.5 6.5 6.5 6.5 6.5 6.5
4.5 4.7 4.4 4.1 4.4 3.8 0.6 1.7 4.2 2.2 6.1 6.3 6.5 6.5 6.5 6.5 6.0 6.3 5.6 6.0 6.5 6.5 6.4 5.2 5.2 4.8 5.1 6.3 6.5 6.5 6.5 6.5 6.5 6.5 6.5 6.5 6.5 6.5 6.5 6.5 6.5 6.5 6.5 6.5
4.8 4.1 4.1 4.2 3.8 4.6 1.7 1.3 1.3 2.1 6.5 6.5 6.5 6.5 6.2 6.5 6.2 6.4 6.0 5.1 6.1 6.1 5.3 5.3 5.1 5.2 6.0 6.0 5.8 5.5 6.5 6.5 6.5 6.5 6.5 6.5 6.5 6.5 6.5 6.5 6.5 6.5 6.5 6.5
4.3 4.2 4.4 5.1 5.4 5.8 5.3 1.7 1.1 1.0 6.5 6.3 6.4 6.1 6.1 5.7 5.6 6.0 6.0 6.0 5.4 4.4 4.5 6.5 6.5 6.5 6.5 6.5 6.4 6.4 5.9 6.5 6.5 6.5 6.5 6.5 6.5 6.5 6.5 6.5 6.5 6.5 6.5 6.2
4.6 4.4 3.6 4.2 5.4 6.1 3.1 2.8 0.6 0.4 4.1 6.4 6.7 5.8 5.9 6.4 6.5 6.2 6.0 5.5 4.7 3.7 4.9 6.5 6.5 6.5 6.5 6.5 6.5 6.2 6.5 6.5 6.5 6.5 6.5 6.5 6.5 6.5 5.9 5.8 6.5 5.5 5.8 5.7
3.7 3.9 4.0 3.8 4.3 5.2 3.9 2.9 2.2 2.1 1.8 4.6 5.9 5.6 6.2 3.2 4.6 6.5 5.3 5.8 5.6 3.6 6.5 6.5 6.5 6.5 6.5 6.5 6.5 6.5 6.5 6.5 6.5 6.5 6.5 6.5 6.5 6.4 5.9 6.5 6.5 5.6 5.0 5.3
3.9 3.7 4.1 3.8 3.9 3.5 3.9 3.6 3.5 2.7 1.6 4.5 5.8 5.8 4.0 3.4 2.3 6.5 4.0 5.4 4.0 5.5 6.5 6.5 6.5 6.5 6.5 6.5 6.5 6.5 6.5 6.5 6.5 6.5 6.5 6.5 5.9 6.6 6.5 5.1 4.1 5.8 5.5 5.3
4.0 3.7 4.4 4.5 4.1 4.9 5.6 4.4 3.2 1.7 1.8 4.5 3.4 3.5 4.3 4.7 3.9 2.0 3.6 3.5 3.2 1.7 6.5 6.5 6.5 6.5 6.5 6.5 6.5 6.5 6.5 6.5 6.5 6.5 6.5 4.0 4.0 4.3 4.7 3.9 4.9 6.0 4.9 4.9
4.1 3.9 3.9 4.2 4.9 5.9 5.0 3.1 2.7 1.8 4.3 4.4 2.7 4.4 4.3 4.1 3.7 2.8 3.0 3.0 3.5 3.1 1.0 1.8 6.0 6.5 6.5 6.5 6.5 6.5 6.5 5.6 6.5 6.5 6.3 5.1 4.2 4.8 5.1 6.0 6.3 6.3 5.9 6.2
4.0 4.0 4.9 5.3 5.5 6.5 6.0 3.9 1.9 1.7 2.2 4.4 5.3 5.6 5.2 5.7 4.0 4.5 3.2 2.6 2.3 2.3 1.7 2.3 6.5 6.5 4.7 6.5 6.4 6.5 5.3 6.1 6.5 6.5 5.8 6.0 5.7 5.4 5.5 5.9 6.8 5.3 5.9 6.7
5.3 5.3 5.6 5.7 7.3 6.3 4.4 2.3 1.6 1.9 1.9 4.6 4.4 5.0 6.1 4.9 4.0 3.2 2.7 2.3 1.9 1.7 2.9 4.9 6.5 3.6 5.4 5.0 6.1 6.5 4.4 6.5 6.5 6.5 3.8 4.7 4.6 4.7 6.0 5.9 5.1 5.1 5.9 5.8
5.4 5.6 6.4 7.5 5.7 4.6 5.9 1.5 3.2 3.1 1.1 2.4 6.4 3.9 6.8 5.7 4.0 3.8 3.6 3.4 2.8 1.8 1.8 3.1 2.5 3.5 3.9 6.5 6.5 4.9 5.1 5.3 4.3 4.4 4.4 3.5 4.4 5.1 5.9 5.5 4.8 6.0 4.2 4.4
6.7 6.7 6.1 5.6 5.7 1.9 2.1 2.9 4.1 3.7 2.0 2.6 5.0 5.2 5.3 6.6 4.6 3.4 3.7 3.4 3.1 2.5 2.3 3.2 3.0 3.5 3.1 6.5 6.5 4.9 4.7 5.1 4.9 5.1 5.4 5.9 5.2 5.5 5.4 5.4 5.3 4.7 4.4 4.4
6.5 6.0 5.4 5.1 4.7 2.7 2.7 2.3 3.5 3.7 2.8 2.8 6.6 6.4 4.7 5.7 3.3 4.0 2.8 3.2 2.4 3.1 3.0 3.1 4.1 3.6 3.6 6.5 5.3 5.0 5.3 4.8 5.8 5.6 6.0 4.9 4.7 5.0 5.2 4.4 4.1 3.8 3.9 4.0
6.5 6.4 7.0 4.8 2.6 3.0 4.5 5.2 4.1 2.9 2.2 2.1 4.6 6.5 6.5 4.4 3.3 2.5 2.8 2.2 6.0 2.9 4.8 4.2 4.0 6.5 6.5 6.2 4.7 5.0 5.6 6.0 5.4 5.2 5.9 5.1 5.4 4.7 4.0 3.7 3.7 3.3 3.7 3.3
7.6 5.7 3.4 2.3 3.2 4.2 4.5 2.8 0.9 0.7 1.9 2.1 5.2 3.1 6.5 3.5 2.6 3.2 3.1 2.2 6.4 6.5 6.0 3.3 6.5 6.5 3.9 4.2 4.3 4.3 4.4 5.1 5.1 5.5 6.1 4.9 4.2 3.8 4.3 4.1 3.7 3.8 3.6 2.9
3.7 2.6 3.5 3.1 3.7 3.1 1.4 1.4 3.0 2.4 4.8 2.4 2.8 3.3 6.1 3.7 5.9 6.2 2.7 6.2 6.1 6.5 6.3 6.5 6.5 6.5 4.6 4.2 3.7 4.1 4.5 5.7 6.0 5.2 4.8 4.0 3.8 3.4 3.3 3.8 3.7 3.2 3.1 3.2
3.3 3.6 3.9 3.5 3.3 3.3 6.2 6.5 5.5 6.4 6.5 4.2 4.3 3.9 3.8 3.0 1.8 2.9 3.7 6.5 6.3 6.5 4.7 6.5 6.5 6.5 4.3 2.9 4.0 4.7 5.1 6.1 5.7 4.6 4.3 4.1 4.5 3.8 3.5 3.6 3.5 3.2 2.9 0.9
4.0 3.8 4.7 4.6 4.1 6.5 6.5 6.5 6.5 6.5 4.5 3.3 4.2 5.5 2.5 3.3 2.1 2.4 6.1 6.5 6.5 4.9 6.5 6.5 6.5 3.2 4.8 4.0 4.3 4.9 5.1 5.1 5.0 5.1 4.9 4.5 4.4 4.1 4.0 3.9 3.2 1.9 1.6 1.1
4.1 4.6 6.5 6.5 6.5 6.5 6.5 6.5 6.3 3.0 2.0 4.9 4.1 3.2 2.0 2.0 4.5 4.6 6.5 6.5 6.2 6.5 6.5 6.5 6.4 3.7 3.5 3.4 3.8 4.2 4.6 4.5 4.9 4.7 4.5 4.0 3.6 3.3 2.8 0.9 1.0 0.0 0.7 -0.5
5.0 4.7 6.5 6.5 4.7 3.6 3.2 2.5 2.9 3.0 4.9 3.0 2.5 2.9 2.6 5.1 6.5 6.4 6.5 6.5 6.5 6.5 6.5 6.5 1.4 2.9 3.1 3.3 3.8 3.6 3.5 1.4 3.3 4.1 3.9 0.1 -0.3 1.9 0.5 -0.1 1.1 1.3 -1.8 -0.9
5.3 5.4 5.6 5.0 4.6 3.6 1.1 1.7 3.1 3.1 3.1 1.5 2.1 5.7 6.5 6.5 6.5 6.5 6.5 6.5 6.5 6.5 5.7 1.4 1.5 3.0 3.2 3.3 3.7 3.2 2.9 2.8 3.4 3.7 3.9 3.4 1.2 1.1 3.0 2.2 1.1 -0.9 -0.7 -0.7
6.3 3.9 3.1 3.1 2.7 2.8 1.3 2.4 2.5 2.3 3.9 6.4 4.3 6.5 6.5 5.7 6.5 6.5 6.5 6.5 6.5 1.0 1.1 1.0 2.5 2.8 3.0 2.7 2.6 1.2 2.5 3.0 3.3 3.7 3.7 4.1 4.0 3.2 2.4 2.8 2.2 0.8 1.3 0.0
Wind_Speed
41 46 51 54 51 38 13 4 4 4 6 4 2 3 5 5 5 3 3 4 4 4 5 4 2 3 3 3 2 2 5 4 0 2 5 5 1 2 2 4 4 1 3 4
46 49 50 55 49 33 7 4 3 3 2 4 2 3 3 4 4 4 4 4 3 3 4 4 5 4 2 2 2 3 2 2 3 5 4 5 4 5 2 2 3 1 3 4
46 50 57 51 39 28 6 5 4 2 3 1 4 5 5 4 5 3 3 5 6 5 3 2 5 3 3 2 1 6 4 3 6 5 6 3 3 6 5 3 3 2 3 5
49 52 51 48 32 27 6 3 4 5 6 6 4 5 6 8 6 4 5 3 5 7 4 3 4 4 2 3 2 4 4 1 4 6 7 3 2 2 4 4 4 4 5 4
47 51 53 44 35 19 4 5 5 3 4 11 6 5 8 10 5 6 5 7 8 5 4 6 4 6 3 2 4 3 2 3 2 4 5 6 2 4 1 2 2 2 3 6
48 49 47 35 27 8 4 1 3 6 10 9 6 6 8 12 8 3 7 10 6 6 6 6 6 6 4 3 3 1 2 1 2 2 8 3 3 6 4 4 3 3 2 8
47 49 48 38 22 10 4 3 4 4 4 7 11 10 10 13 6 7 9 7 6 4 6 5 5 5 3 3 6 5 1 1 1 1 6 3 5 6 5 5 3 4 5 5
49 46 37 29 17 15 7 3 4 3 4 6 8 10 10 11 5 4 6 2 6 7 6 4 4 4 4 3 6 6 7 3 1 2 2 4 0 3 5 6 6 4 3 5
47 42 30 22 19 16 5 2 3 4 6 9 12 13 16 8 5 4 3 5 3 7 3 3 3 3 4 2 3 4 6 4 4 1 1 4 5 2 4 4 4 5 8 7
44 37 33 26 21 14 5 1 3 4 4 3 14 8 15 8 5 5 3 4 3 4 2 2 3 3 4 3 4 4 2 1 4 2 2 6 4 2 5 4 7 3 6 6
39 34 27 23 17 10 4 1 5 4 3 3 5 6 7 5 5 5 6 4 3 3 3 3 3 3 3 2 3 4 5 3 3 2 3 5 4 1 4 7 4 4 4 5
36 30 26 20 14 10 9 4 2 3 5 3 4 6 3 8 8 6 0 5 5 5 4 1 3 1 2 4 2 1 2 6 4 7 5 7 5 7 6 5 4 2 6 6
33 29 22 19 15 12 11 3 3 6 4 5 5 5 7 7 7 6 4 1 5 2 4 4 2 2 4 3 4 3 4 4 3 3 5 7 8 5 5 5 4 3 3 4
33 27 23 20 11 13 11 4 0 5 4 4 3 2 4 3 7 5 5 7 5 5 3 3 2 2 3 4 4 4 6 4 5 4 6 4 2 5 7 6 3 6 5 3
31 28 25 19 11 22 17 4 3 4 6 4 2 3 7 4 9 10 8 8 6 2 3 2 3 2 2 1 1 4 4 6 4 5 8 5 5 8 6 6 5 7 5 5
31 24 20 19 18 14 8 4 4 7 4 4 3 3 3 5 7 9 8 5 3 2 4 3 2 2 3 2 3 6 4 3 5 4 5 8 8 6 5 7 8 5 8 7
23 24 22 23 21 7 4 4 3 2 3 4 3 2 3 3 4 3 4 4 2 3 2 1 3 1 3 2 4 5 6 7 7 6 4 2 6 5 8 8 8 10 8 7
22 28 31 30 27 10 4 3 5 4 5 4 4 2 2 2 2 2 1 2 3 3 2 1 2 2 2 4 6 5 6 7 5 4 4 5 5 7 6 10 9 8 6 5
24 23 22 8 6 3 1 4 8 8 4 4 3 5 4 2 2 2 3 2 1 1 2 2 4 3 5 6 7 5 5 4 6 5 6 6 6 7 7 8 7 8 5 5
21 8 5 3 1 0 4 7 4 4 4 3 3 3 3 4 2 1 3 1 3 1 4 2 3 4 6 7 8 7 6 7 7 5 4 6 6 9 7 6 6 6 6 5
3 3 2 2 3 3 4 2 3 1 1 0 3 4 7 1 4 3 2 3 2 2 4 5 3 3 5 8 8 6 7 5 5 6 5 8 11 9 7 6 6 6 7 4
5 6 5 3 3 3 4 2 1 4 6 2 5 4 5 3 4 3 2 3 2 4 2 2 3 4 3 6 7 7 6 5 5 8 9 9 9 8 8 7 6 6 5 6
4 4 4 3 1 4 7 7 4 3 5 5 5 7 4 3 3 3 3 3 4 2 2 4 4 3 5 6 6 6 6 8 7 6 7 8 7 7 7 6 5 7 6 6
3 4 4 4 3 5 5 4 5 4 5 11 8 3 3 2 3 3 4 4 3 1 2 5 3 6 7 6 6 7 7 8 7 7 7 8 8 8 7 6 7 7 6 6
3 4 4 6 4 3 3 4 3 3 9 7 5 4 3 1 3 2 3 3 4 5 5 3 4 7 7 7 6 7 7 6 6 5 5 4 5 5 5 5 6 5 4 6
1 2 2 2 3 3 3 3 4 1 6 4 4 3 3 3 4 3 6 5 6 4 4 4 3 8 7 7 7 7 7 7 6 5 5 5 5 6 6 4 6 6 6 7
2 2 1 3 3 3 2 2 2 2 6 4 3 5 7 2 3 3 4 5 4 4 3 3 5 7 7 7 6 6 6 6 6 4 5 4 4 3 3 5 6 7 8 7
Wind_Direction
156 155 147 144 145 140 70 100 92 323 338 77 70 154 197 194 118 99 94 120 128 147 134 127 166 140 135 65 76 143 200 139 280 302 289 280 49 235 123 107 294 71 156 276
156 155 151 151 151 144 123 86 100 346 0 137 217 255 243 149 134 143 155 143 129 121 123 113 134 116 139 75 117 137 159 10 22 325 346 348 358 331 309 138 68 198 122 271
157 156 154 156 149 125 87 111 110 12 32 44 166 164 181 126 131 138 116 110 97 102 98 121 156 119 171 207 98 136 98 83 154 194 226 176 339 331 334 95 88 274 211 288
157 158 157 160 148 132 107 82 165 177 176 214 207 162 155 144 156 166 120 98 143 132 128 141 136 125 108 210 46 140 111 173 187 251 236 122 207 263 354 71 211 131 250 212
161 162 161 163 155 131 82 123 134 115 159 136 155 180 190 166 152 137 161 143 136 128 145 188 141 127 127 106 34 120 152 283 326 279 150 168 236 227 175 335 264 325 271 291
160 162 162 157 158 111 102 162 91 113 158 144 136 196 163 172 131 107 145 133 109 117 175 123 115 100 133 139 122 79 66 64 345 352 130 156 280 232 217 231 219 178 221 238
162 164 164 163 151 124 123 167 113 112 159 162 182 151 150 154 142 136 134 120 110 196 137 91 60 58 28 324 280 158 206 319 164 192 157 251 239 167 183 206 204 236 251 301
163 167 161 155 137 120 125 137 115 120 98 166 161 164 140 140 130 98 121 75 146 155 67 71 62 359 11 275 235 239 184 138 358 117 214 287 6 203 196 183 259 231 247 302
162 162 147 137 132 120 90 97 128 99 116 211 165 158 156 149 136 64 96 46 135 75 94 87 118 186 213 230 262 234 116 90 127 113 173 239 230 212 169 106 291 241 207 239
158 153 145 130 115 118 112 80 106 93 104 220 154 161 157 138 110 109 121 134 62 72 91 100 133 240 186 167 192 160 139 336 172 153 209 287 234 178 108 107 240 251 183 195
155 145 124 114 113 94 84 161 71 112 109 62 140 136 143 125 119 141 185 83 342 49 85 111 204 145 231 68 236 183 172 160 225 86 66 297 224 333 174 217 239 218 172 192
147 124 115 112 101 103 102 74 356 113 81 147 71 89 89 134 157 126 298 164 160 174 97 122 112 92 69 162 246 277 210 181 192 171 213 225 229 204 228 182 202 196 167 209
130 118 118 117 122 136 115 122 158 75 111 54 45 41 342 63 133 144 122 315 147 179 179 156 161 147 125 168 242 204 266 162 192 87 249 231 245 241 199 175 163 182 208 171
126 122 114 112 99 127 128 122 23 94 108 98 320 327 31 17 113 108 124 128 78 108 76 90 121 153 175 203 213 176 207 127 189 252 287 266 269 181 160 175 144 98 113 148
121 122 130 123 147 125 98 87 10 106 114 141 131 340 8 14 95 94 95 104 99 93 71 89 195 213 116 257 57 243 191 196 170 225 230 178 235 189 180 147 125 143 153 75
127 133 134 169 146 120 108 60 346 9 101 94 110 289 25 31 83 92 94 93 81 96 129 202 230 253 114 170 234 256 206 182 193 241 218 184 182 181 147 138 163 128 100 102
121 128 120 97 85 67 86 153 168 65 91 89 81 54 282 114 72 42 59 42 99 111 137 147 166 267 115 176 225 245 267 296 289 252 171 146 156 174 168 150 113 105 96 89
117 107 96 94 95 93 39 346 39 93 85 88 115 168 71 69 57 70 60 69 24 0 172 36 157 0 106 254 244 256 258 239 209 110 127 182 148 145 135 115 117 105 110 125
120 94 87 60 42 60 208 325 49 67 115 126 121 135 185 113 131 113 37 99 82 316 177 231 117 207 220 227 223 228 243 164 149 91 71 121 152 110 109 115 109 115 128 114
102 76 59 49 311 322 41 12 27 21 341 53 108 124 164 124 143 65 99 32 186 184 235 111 194 248 234 221 214 213 216 209 170 146 159 119 112 136 146 148 149 147 147 133
59 75 85 233 324 61 37 58 100 295 8 204 150 137 133 302 107 135 181 175 169 175 256 150 248 271 242 209 192 185 169 179 188 199 178 147 150 149 145 150 154 153 155 162
152 120 110 71 55 55 105 190 225 196 203 172 126 154 145 163 116 111 212 157 97 228 147 94 262 248 244 140 152 156 159 134 118 145 140 141 146 152 155 163 172 173 160 150
61 62 78 115 299 53 173 190 207 179 170 167 142 137 133 68 59 71 122 123 208 80 90 224 227 256 177 161 144 141 131 120 116 129 136 141 149 153 152 171 187 167 175 172
91 132 140 161 213 229 196 177 174 205 125 134 132 100 115 128 81 147 113 215 112 185 236 236 237 205 185 174 154 136 158 138 135 152 158 163 172 189 192 188 174 175 188 187
138 125 175 201 211 209 203 185 101 80 135 127 94 56 90 54 103 181 133 141 228 210 226 226 220 180 165 168 158 160 165 172 169 158 153 186 191 189 221 218 194 189 145 171
67 125 100 279 87 330 37 70 100 134 132 90 72 119 94 186 150 145 200 181 218 241 211 229 173 153 164 166 169 175 178 182 188 190 195 196 196 204 220 170 198 195 188 195
127 256 29 119 108 144 179 105 140 148 123 152 119 111 194 109 139 206 190 208 217 210 221 183 166 152 162 164 160 162 165 170 183 192 204 210 214 199 176 229 230 202 206 201